Date String (YYYY-MM-DD hh:mm:ss) UTC,Instrument flags,absolute air pressure of the measurement (hPa),sample flow rate (lpm),inlet stack bypass flow (lpm),air temperature of the measurement (°C),ambient temperature measured by the external sensor (°C),aerosol sample conditioner tube jacket temperature (°C),OPC LED temperature (°C),internal box temperature (°C),relative humidity of the measurement (%),span deviation,mass concentration of particles derived from Lorenz-Mie calculation of OPC scattering (μg/m³),mass concentration of particles derived from Lorenz-Mie calculation of OPC scattering (μg/m³),mass concentration of particles derived from Lorenz-Mie calculation of OPC scattering (μg/m³)
DateTimeUTC,F1_M11,P_M11,Q1_M11,Q2_M11,T1_M11,T2_M11,T3_M11,T4_M11,T5_M11,U1_M11,ZSPAN_M11,X0_M11,X2_M11,X1_M11
2024-02-25 09:00:00,SystemResetWarning,0823.5,5.00,000.00,021.0,020.1,000.0,029.4,022.7,05.8,0000.0,0011.02,0003.80,0001.67
2024-02-25 09:01:00,SystemResetWarning,0823.4,5.01,000.00,021.0,020.1,000.0,029.4,022.7,05.8,0000.0,0011.07,0003.83,0001.67
2024-02-25 09:02:00,SystemResetWarning,0823.5,5.00,000.00,021.0,020.1,000.0,029.4,022.6,05.9,0000.0,0011.66,0003.86,0001.65
2024-02-25 09:03:00,SystemResetWarning,0823.4,5.01,000.00,020.9,020.1,000.0,029.4,022.6,05.9,0000.0,0011.53,0003.84,0001.65
2024-02-25 09:04:00,SystemResetWarning,0823.2,5.00,000.00,020.9,020.1,000.0,029.4,022.7,05.9,0000.0,0011.29,0003.81,0001.64
2024-02-25 09:05:00,SystemResetWarning,0823.5,5.01,000.00,020.9,020.1,000.0,029.4,022.7,05.9,0000.0,0011.30,0003.89,0001.65
2024-02-25 09:06:00,SystemResetWarning,0823.5,5.00,000.00,020.9,020.1,000.0,029.4,022.7,06.0,0000.0,0012.06,0003.93,0001.64
2024-02-25 09:07:00,SystemResetWarning,0823.5,5.00,000.00,021.0,020.1,000.0,029.4,022.7,06.0,0000.0,0011.98,0003.99,0001.62
2024-02-25 09:08:00,SystemResetWarning,0823.4,5.00,000.00,021.0,020.1,000.0,029.4,022.6,06.1,0000.0,0012.28,0004.05,0001.62
2024-02-25 09:09:00,SystemResetWarning,0823.4,5.00,000.00,021.0,020.1,000.0,029.4,022.7,06.0,0000.0,0012.40,0004.10,0001.65
2024-02-25 09:10:00,SystemResetWarning,0823.4,5.00,000.00,021.0,020.1,000.0,029.4,022.7,05.9,0000.0,0012.79,0004.12,0001.64
2024-02-25 09:11:00,SystemResetWarning,0823.4,4.99,000.00,021.0,020.1,000.0,029.3,022.7,06.0,0000.0,0012.97,0004.15,0001.64
2024-02-25 09:12:00,SystemResetWarning,0823.5,5.00,000.00,021.0,020.1,000.0,029.3,022.7,05.9,0000.0,0013.03,0004.15,0001.64
2024-02-25 09:13:00,SystemResetWarning,0823.4,5.00,000.00,021.0,020.1,000.0,029.3,022.7,05.8,0000.0,0013.17,0004.12,0001.66
2024-02-25 09:14:00,SystemResetWarning,0823.5,5.00,000.00,020.9,020.1,000.0,029.3,022.6,05.8,0000.0,0013.34,0004.16,0001.65
2024-02-25 09:15:00,SystemResetWarning,0823.6,5.00,000.00,020.9,020.1,000.0,029.3,022.6,05.8,0000.0,0013.70,0004.20,0001.66
2024-02-25 09:16:00,SystemResetWarning,0823.4,5.01,000.00,020.9,020.1,000.0,029.3,022.6,06.0,0000.0,0013.67,0004.16,0001.68
2024-02-25 09:17:00,SystemResetWarning,0823.3,5.01,000.00,020.9,020.1,000.0,029.3,022.6,06.3,0000.0,0013.20,0004.14,0001.68
2024-02-25 09:18:00,SystemResetWarning,0823.3,5.00,000.00,020.9,020.1,000.0,029.3,022.6,06.5,0000.0,0013.43,0004.16,0001.68
2024-02-25 09:19:00,SystemResetWarning,0823.4,4.99,000.00,020.9,020.1,000.0,029.3,022.6,06.5,0000.0,0013.23,0004.13,0001.69
2024-02-25 09:20:00,SystemResetWarning,0823.4,4.99,000.00,020.9,020.1,000.0,029.3,022.6,06.4,0000.0,0013.58,0004.15,0001.67
2024-02-25 09:21:00,SystemResetWarning,0823.2,5.01,000.00,020.9,020.1,000.0,029.3,022.6,06.5,0000.0,0014.22,0004.16,0001.66
2024-02-25 09:22:00,SystemResetWarning,0823.4,5.01,000.00,020.9,020.1,000.0,029.3,022.7,06.2,0000.0,0015.43,0004.15,0001.65
2024-02-25 09:23:00,SystemResetWarning,0823.6,4.99,000.00,020.9,020.1,000.0,029.3,022.6,06.1,0000.0,0015.39,0004.10,0001.63
2024-02-25 09:24:00,SystemResetWarning,0823.3,4.99,000.00,020.9,020.1,000.0,029.3,022.7,06.1,0000.0,0014.53,0004.06,0001.61
2024-02-25 09:25:00,SystemResetWarning,0823.0,5.00,000.00,020.9,020.1,000.0,029.3,022.6,06.1,0000.0,0014.33,0004.03,0001.61
2024-02-25 09:26:00,SystemResetWarning,0823.2,5.01,000.00,020.9,020.1,000.0,029.3,022.6,06.2,0000.0,0014.83,0004.03,0001.63
2024-02-25 09:27:00,SystemResetWarning,0823.5,5.01,000.00,020.9,020.1,000.0,029.3,022.6,06.2,0000.0,0014.77,0004.00,0001.63
2024-02-25 09:28:00,SystemResetWarning,0823.3,5.00,000.00,020.9,020.1,000.0,029.3,022.6,06.3,0000.0,0014.72,0003.97,0001.64
2024-02-25 09:29:00,SystemResetWarning,0823.2,4.99,000.00,020.9,020.1,000.0,029.3,022.6,06.3,0000.0,0014.22,0003.92,0001.67
2024-02-25 09:30:00,SystemResetWarning,0823.4,5.01,000.00,020.9,020.1,000.0,029.3,022.6,06.3,0000.0,0014.43,0003.92,0001.66
2024-02-25 09:31:00,SystemResetWarning,0823.4,5.01,000.00,020.9,020.1,000.0,029.3,022.6,06.3,0000.0,0014.25,0003.91,0001.66
2024-02-25 09:32:00,SystemResetWarning,0823.1,5.01,000.00,020.9,020.1,000.0,029.3,022.6,06.4,0000.0,0013.86,0003.94,0001.68
2024-02-25 09:33:00,SystemResetWarning,0823.0,5.01,000.00,020.9,020.0,000.0,029.3,022.6,06.4,0000.0,0012.65,0003.96,0001.69
2024-02-25 09:34:00,SystemResetWarning,0823.0,4.99,000.00,020.9,020.0,000.0,029.3,022.6,06.4,0000.0,0013.59,0003.99,0001.71
2024-02-25 09:35:00,SystemResetWarning,0823.0,5.00,000.00,020.9,020.0,000.0,029.3,022.6,06.4,0000.0,0014.17,0003.97,0001.72
2024-02-25 09:36:00,SystemResetWarning,0823.2,4.99,000.00,020.8,020.0,000.0,029.3,022.6,06.5,0000.0,0014.65,0004.00,0001.71
2024-02-25 09:37:00,SystemResetWarning,0823.5,4.99,000.00,020.8,020.0,000.0,029.3,022.6,06.6,0000.0,0014.21,0004.01,0001.71
2024-02-25 09:38:00,SystemResetWarning,0823.4,5.00,000.00,020.8,020.0,000.0,029.3,022.6,06.6,0000.0,0015.24,0004.08,0001.70
2024-02-25 09:39:00,SystemResetWarning,0823.2,5.00,000.00,020.8,020.0,000.0,029.3,022.5,06.6,0000.0,0016.46,0004.16,0001.69
2024-02-25 09:40:00,SystemResetWarning,0822.9,5.01,000.00,020.8,020.0,000.0,029.3,022.5,06.6,0000.0,0016.66,0004.13,0001.66
2024-02-25 09:41:00,SystemResetWarning,0823.0,5.01,000.00,020.8,020.0,000.0,029.3,022.5,06.7,0000.0,0016.55,0004.16,0001.65
2024-02-25 09:42:00,SystemResetWarning,0822.6,5.00,000.00,020.8,019.9,000.0,029.3,022.5,06.8,0000.0,0016.82,0004.14,0001.65
2024-02-25 09:43:00,SystemResetWarning,0823.0,5.00,000.00,020.8,019.9,000.0,029.2,022.5,06.8,0000.0,0017.29,0004.11,0001.65
2024-02-25 09:44:00,SystemResetWarning,0823.1,4.99,000.00,020.8,019.9,000.0,029.2,022.5,06.6,0000.0,0017.17,0004.08,0001.66
2024-02-25 09:45:00,SystemResetWarning,0823.2,4.99,000.00,020.7,019.9,000.0,029.2,022.5,06.5,0000.0,0016.19,0004.07,0001.68
2024-02-25 09:46:00,SystemResetWarning,0823.0,4.99,000.00,020.7,019.9,000.0,029.2,022.4,06.5,0000.0,0014.94,0004.14,0001.66
2024-02-25 09:47:00,SystemResetWarning,0823.1,5.02,000.00,020.7,019.9,000.0,029.2,022.4,06.5,0000.0,0014.88,0004.17,0001.66
2024-02-25 09:48:00,SystemResetWarning,0823.1,5.00,000.00,020.7,019.9,000.0,029.2,022.4,06.5,0000.0,0015.49,0004.19,0001.67
2024-02-25 09:49:00,SystemResetWarning,0823.0,5.00,000.00,020.7,019.8,000.0,029.2,022.4,06.8,0000.0,0015.28,0004.14,0001.66
2024-02-25 09:50:00,SystemResetWarning,0823.0,4.99,000.00,020.7,019.8,000.0,029.2,022.4,06.9,0000.0,0014.48,0004.10,0001.65
2024-02-25 09:51:00,SystemResetWarning,0822.9,5.00,000.00,020.7,019.8,000.0,029.2,022.4,07.1,0000.0,0014.90,0004.14,0001.68
2024-02-25 09:52:00,SystemResetWarning,0822.9,5.01,000.00,020.7,019.8,000.0,029.2,022.4,07.0,0000.0,0015.09,0004.12,0001.70
2024-02-25 09:53:00,SystemResetWarning,0822.9,5.01,000.00,020.7,019.8,000.0,029.1,022.4,06.9,0000.0,0015.43,0004.17,0001.73
2024-02-25 09:54:00,SystemResetWarning,0823.1,4.99,000.00,020.7,019.8,000.0,029.1,022.4,07.0,0000.0,0015.72,0004.19,0001.73
2024-02-25 09:55:00,SystemResetWarning,0823.0,4.99,000.00,020.7,019.8,000.0,029.1,022.4,06.9,0000.0,0015.02,0004.20,0001.72
2024-02-25 09:56:00,SystemResetWarning,0823.0,5.00,000.00,020.7,019.8,000.0,029.1,022.4,07.0,0000.0,0015.07,0004.23,0001.70
2024-02-25 09:57:00,SystemResetWarning,0823.0,5.01,000.00,020.7,019.8,000.0,029.1,022.4,07.0,0000.0,0015.13,0004.21,0001.70
2024-02-25 09:58:00,SystemResetWarning,0823.0,5.01,000.00,020.7,019.8,000.0,029.1,022.4,06.8,0000.0,0015.12,0004.21,0001.70
2024-02-25 09:59:00,SystemResetWarning,0822.9,4.98,000.00,020.7,019.7,000.0,029.1,022.4,06.9,0000.0,0014.76,0004.24,0001.71
